Waarnemingen

Advertentie
Mijn weer
Svenska Hogarna A, Zweden (2498): temperatuur & dauwpunt: 19.11.2017 02:00:00 - 25.11.2017 02:00:00 (CET)Svenska Hogarna A, Zweden (2498): windsnelheid & windstoten: 19.11.2017 02:00:00 - 25.11.2017 02:00:00 (CET)Svenska Hogarna A, Zweden (2498): windrichting: 19.11.2017 02:00:00 - 25.11.2017 02:00:00 (CET)Svenska Hogarna A, Zweden (2498): luchtdruk: 19.11.2017 02:00:00 - 25.11.2017 02:00:00 (CET)Svenska Hogarna A, Zweden (2498): zicht: 19.11.2017 02:00:00 - 25.11.2017 02:00:00 (CET)Svenska Hogarna A, Zweden (2498): neerslag: 19.11.2017 02:00:00 - 25.11.2017 02:00:00 (CET)
Datum & Tijd tt [°C] td [°C] ff [km/u] ff [kn] fx [km/u] fx [kn] dd ppp [hPa] vv [km] rr [mm]
25.11.2017 02:00:00 5,3 2,3 21 11 26 14 WZW 1004,8 36 0,0
25.11.2017 01:00:00 5,3 2,5 17 9 23 12 WZW 1004,6 30 0,0
25.11.2017 00:00:00 5,3 2,8 15 8 26 14 WZW 1004,6 31 0,0
24.11.2017 23:00:00 5,2 2,5 18 10 23 13 WZW 1004,5 28 0,0
24.11.2017 22:00:00 5,8 3,0 21 11 25 14 W 1004,4 34 0,0
24.11.2017 21:00:00 6,0 3,7 18 10 27 15 ZW 1004,3 28 0,0
24.11.2017 20:00:00 6,2 4,4 21 11 27 15 ZW 1004,5 23 0,0
24.11.2017 19:00:00 6,5 4,5 23 12 35 19 ZZW 1004,4 26 0,0
24.11.2017 18:00:00 6,6 4,4 26 14 37 20 ZZW 1004,4 27 0,0
24.11.2017 17:00:00 6,7 4,5 27 15 37 20 ZZW 1004,5 27 0,0
24.11.2017 16:00:00 6,6 4,4 26 14 36 19 ZZW 1004,1 26 0,0
24.11.2017 15:00:00 6,6 4,4 29 15 42 23 ZZW 1003,9 27 0,0
24.11.2017 14:00:00 6,9 4,7 31 17 46 25 ZZW 1003,9 23 0,0
24.11.2017 13:00:00 6,9 4,6 33 18 50 27 ZZW 1003,6 21 0,0
24.11.2017 12:00:00 7,1 4,7 36 19 48 26 ZZW 1003,7 21 0,0
24.11.2017 11:00:00 7,3 4,9 36 20 53 28 ZZW 1003,2 22 0,0
24.11.2017 10:00:00 7,3 4,8 39 21 54 29 ZZW 1002,9 21 0,0
24.11.2017 09:00:00 7,2 4,2 42 23 58 32 ZZW 1002,2 21 0,0
24.11.2017 08:00:00 7,4 4,7 40 22 60 32 ZZW 1001,5 19 0,0
24.11.2017 07:00:00 7,4 4,4 39 21 49 27 ZZW 1000,6 19 0,0
24.11.2017 06:00:00 6,9 4,9 30 16 40 22 ZZW 1000,1 17 0,0
24.11.2017 05:00:00 7,0 5,9 29 15 36 19 ZZW 999,8 13 0,0
24.11.2017 04:00:00 7,2 6,3 24 13 32 17 ZZW 999,7 11 0,0
24.11.2017 03:00:00 7,1 5,9 24 13 44 24 ZZW 999,4 16 0,0
24.11.2017 02:00:00 7,7 6,5 33 18 51 27 ZZW 998,8 14 0,0
24.11.2017 01:00:00 7,9 6,7 39 21 53 28 Z 997,8 13 0,0
24.11.2017 00:00:00 7,9 6,5 42 23 58 31 Z 997,4 12 0,0
23.11.2017 23:00:00 7,6 6,4 39 21 55 30 Z 996,9 9 0,1
23.11.2017 22:00:00 7,7 5,8 41 22 59 32 Z 996,4 11 0,0
23.11.2017 21:00:00 7,9 6,0 48 26 68 37 Z 996,2 10 0,0
23.11.2017 20:00:00 7,9 6,0 47 26 66 36 Z 996,8 10 0,0
23.11.2017 19:00:00 7,9 6,2 44 24 57 31 Z 997,2 9 0,8
23.11.2017 18:00:00 7,8 6,3 42 23 58 32 ZZO 997,0 12 0,0
23.11.2017 17:00:00 7,7 6,3 44 24 56 30 ZZO 997,9 10 0,0
23.11.2017 16:00:00 7,8 6,4 45 24 54 29 Z 998,4 9 0,0
23.11.2017 15:00:00 7,9 6,2 44 24 57 31 Z 998,7 9 0,0
23.11.2017 14:00:00 7,9 6,4 43 23 61 33 Z 998,3 9 0,0
23.11.2017 13:00:00 7,9 6,4 46 25 68 37 Z 998,4 10 0,0
23.11.2017 12:00:00 7,7 6,5 53 29 68 37 Z 997,9 10 0,0
23.11.2017 11:00:00 7,6 6,4 49 27 64 35 Z 998,8 9 0,0
23.11.2017 10:00:00 7,5 6,4 41 22 55 30 ZZO 999,5 7 0,0
23.11.2017 09:00:00 7,6 6,9 44 24 56 31 Z 999,6 4,1 0,0
23.11.2017 08:00:00 7,5 6,9 46 25 61 33 ZZO 999,4 3,7 0,7
23.11.2017 07:00:00 7,0 6,3 48 26 75 41 ZZO 999,2 3,7 0,5
23.11.2017 06:00:00 6,1 5,1 61 33 88 47 ZZO 999,4 4,1 0,8
23.11.2017 05:00:00 5,2 4,2 63 34 87 47 ZO 1000,0 3,5 0,9
23.11.2017 04:00:00 4,6 3,4 64 34 82 44 ZO 1000,9 2,6 0,0
23.11.2017 03:00:00 4,4 2,6 62 34 85 46 ZO 1001,8 7 1,2
23.11.2017 02:00:00 4,4 2,6 67 36 87 47 ZO 1002,6 6 0,8
23.11.2017 01:00:00 4,2 2,2 67 36 82 45 ZO 1003,7 6 0,3
23.11.2017 00:00:00 4,4 1,4 58 32 80 43 ZO 1004,9 13 0,3
22.11.2017 23:00:00 4,3 -0,5 54 29 74 40 ZO 1006,5 10 0,5
22.11.2017 22:00:00 4,8 1,1 55 30 69 37 ZO 1006,7 29 0,0
22.11.2017 21:00:00 4,4 1,4 54 29 68 37 ZO 1007,4 8 0,3
22.11.2017 20:00:00 4,7 -1,1 51 27 66 36 ZO 1008,0 40 0,0
22.11.2017 19:00:00 4,7 -0,5 45 25 57 31 OZO 1008,6 43 0,0
22.11.2017 18:00:00 4,7 0,1 44 24 54 29 ZO 1009,1 48 0,2
22.11.2017 17:00:00 3,4 1,0 39 21 58 32 OZO 1009,8 6 1,2
22.11.2017 16:00:00 4,4 -0,8 35 19 46 25 OZO 1010,0 50 0,0
22.11.2017 15:00:00 4,1 -1,5 30 16 38 21 OZO 1010,6 50 0,0
22.11.2017 14:00:00 3,9 -1,9 28 15 35 19 OZO 1010,9 41 0,0
22.11.2017 13:00:00 3,6 -1,8 21 11 31 17 OZO 1011,1 48 0,0
22.11.2017 12:00:00 3,2 -1,0 22 12 32 18 OZO 1011,2 41 0,0
22.11.2017 11:00:00 3,1 -1,6 19 10 27 14 OZO 1011,7 50 0,0
22.11.2017 10:00:00 2,7 -0,6 22 12 29 16 O 1011,8 50 0,0
22.11.2017 09:00:00 2,3 -1,9 15 8 22 12 O 1011,6 50 0,0
22.11.2017 08:00:00 1,9 -2,2 10 5 14 8 ONO 1011,5 50 0,0
22.11.2017 07:00:00 1,5 -1,9 7 4 13 7 NO 1011,7 50 0,0
22.11.2017 06:00:00 1,1 -1,8 11 6 16 9 NNO 1011,4 43 0,0
22.11.2017 05:00:00 0,6 -2,0 9 5 16 9 NNO 1011,4 48 0,0
22.11.2017 04:00:00 0,8 -1,6 9 5 19 11 N 1011,7 45 0,0
22.11.2017 03:00:00 0,9 -1,2 11 6 21 12 NW 1011,6 50 0,0
22.11.2017 02:00:00 0,5 -0,9 18 10 24 13 WNW 1011,6 50 0,0
22.11.2017 01:00:00 0,4 -1,0 19 10 27 15 WNW 1011,6 45 0,0
22.11.2017 00:00:00 0,5 -0,9 19 11 26 14 W 1011,7 41 0,0
21.11.2017 23:00:00 0,4 -1,0 20 11 25 14 WNW 1011,7 42 0,0
21.11.2017 22:00:00 0,4 -1,2 19 10 28 15 WNW 1011,3 39 0,0
21.11.2017 21:00:00 0,8 -0,8 22 12 29 16 WNW 1010,9 43 0,0
21.11.2017 20:00:00 0,9 -0,9 22 12 29 16 WNW 1010,9 38 0,0
21.11.2017 19:00:00 1,5 -0,4 21 11 34 18 NW 1010,8 46 0,0
21.11.2017 18:00:00 1,6 -0,3 19 10 29 16 NW 1010,5 50 0,0
21.11.2017 17:00:00 1,8 -0,3 19 10 34 18 NW 1010,3 45 0,0
21.11.2017 16:00:00 2,0 -0,6 19 10 34 18 NNW 1010,0 21 0,0
21.11.2017 15:00:00 2,3 -1,3 19 10 29 16 N 1009,7 50 0,0
21.11.2017 14:00:00 2,3 -3,6 15 8 24 13 N 1009,5 48 0,0
21.11.2017 13:00:00 2,5 -3,0 16 8 24 13 N 1009,4 50 0,0
21.11.2017 12:00:00 2,8 -1,7 12 6 18 10 N 1009,3 50 0,0
21.11.2017 11:00:00 2,8 -1,7 13 7 21 11 NO 1009,3 44 0,0
21.11.2017 10:00:00 2,5 -0,4 14 7 24 13 NO 1009,2 36 0,0
21.11.2017 09:00:00 2,6 -1,0 14 8 22 12 NNO 1008,9 47 0,0
21.11.2017 08:00:00 2,2 -0,9 12 6 29 15 NNO 1008,6 13 0,0
21.11.2017 07:00:00 2,8 0,7 13 7 21 11 NNW 1008,4 36 0,0
21.11.2017 06:00:00 3,2 -1,0 13 7 19 10 NO 1008,2 50 0,0
21.11.2017 05:00:00 3,3 -0,5 11 6 21 12 NO 1008,3 50 0,0
21.11.2017 04:00:00 3,2 1,6 15 8 27 15 N 1008,2 47 0,0
21.11.2017 03:00:00 3,0 0,6 17 9 21 12 NO 1008,0 41 0,0
21.11.2017 02:00:00 2,6 0,8 14 8 28 15 NO 1007,9 32 0,7
21.11.2017 01:00:00 2,9 1,0 3 2 7 4 ZZW 1008,1 46 0,0
21.11.2017 00:00:00 2,6 1,1 5 3 12 6 ZZW 1008,1 49 0,0
20.11.2017 23:00:00 1,4 0,1 4 2 32 17 O 1008,2 2,4 1,3
20.11.2017 22:00:00 2,9 1,1 7 4 28 15 WNW 1007,7 50 0,0
20.11.2017 21:00:00 2,8 1,5 23 12 31 17 WNW 1007,5 50 0,0
20.11.2017 20:00:00 2,6 1,3 24 13 29 16 WNW 1007,3 37 0,0
20.11.2017 19:00:00 2,6 1,6 17 9 31 17 WNW 1007,3 44 0,0
20.11.2017 18:00:00 2,1 1,1 24 13 30 16 WNW 1007,2 35 0,0
20.11.2017 17:00:00 2,6 1,4 22 12 34 18 WNW 1006,7 41 0,0
20.11.2017 16:00:00 2,4 1,1 26 14 34 19 WNW 1006,4 42 0,0
20.11.2017 15:00:00 2,9 1,4 21 12 41 22 NW 1006,0 18 0,3
20.11.2017 14:00:00 3,1 1,8 29 15 42 23 WNW 1005,4 42 0,0
20.11.2017 13:00:00 3,0 1,8 29 15 42 23 WNW 1005,1 27 0,0
20.11.2017 12:00:00 2,8 1,6 34 18 46 25 WNW 1004,6 49 0,0
20.11.2017 11:00:00 2,8 1,9 31 17 53 29 NW 1004,3 21 0,9
20.11.2017 10:00:00 2,1 1,1 42 23 58 32 NW 1003,8 9 0,0
20.11.2017 09:00:00 2,1 1,1 42 23 55 30 WNW 1003,1 4,0 0,0
20.11.2017 08:00:00 3,1 1,6 35 19 54 29 NW 1002,5 8 0,0
20.11.2017 07:00:00 3,3 1,7 36 19 54 29 NNW 1002,1 19 0,0
20.11.2017 06:00:00 2,2 0,7 26 14 42 23 NNW 1002,0 11 0,0
20.11.2017 05:00:00 2,6 1,1 24 13 29 16 WNW 1001,7 45 0,0
20.11.2017 04:00:00 1,7 0,1 23 13 29 16 WNW 1001,5 44 0,0
20.11.2017 03:00:00 1,6 -0,3 15 8 21 11 WNW 1001,2 50 0,0
20.11.2017 02:00:00 0,9 -0,9 10 6 21 11 WNW 1001,0 50 0,0
20.11.2017 01:00:00 0,2 -1,4 11 6 22 12 NW 1001,1 50 0,0
20.11.2017 00:00:00 0,0 -1,9 13 7 29 16 WNW 1000,9 36 0,0
19.11.2017 23:00:00 0,1 -1,8 22 12 33 18 WNW 1000,9 50 0,0
19.11.2017 22:00:00 0,2 -1,7 28 15 39 21 WNW 1000,6 48 0,0
19.11.2017 21:00:00 0,1 -1,8 32 17 40 22 WNW 1000,1 47 0,0
19.11.2017 20:00:00 0,6 -1,3 29 16 41 22 NW 999,8 50 0,0
19.11.2017 19:00:00 0,5 -1,4 29 16 40 22 NW 999,6 48 0,0
19.11.2017 18:00:00 0,4 -1,7 21 12 40 22 NW 999,5 49 0,0
19.11.2017 17:00:00 0,6 -1,2 27 15 42 23 NW 999,2 50 0,0
19.11.2017 16:00:00 0,7 -0,8 28 15 43 23 NW 998,8 14 0,0
19.11.2017 15:00:00 1,4 -0,7 33 18 46 25 NNW 998,6 49 0,0
19.11.2017 14:00:00 2,3 -0,6 29 16 42 23 NNW 998,1 50 0,0
19.11.2017 13:00:00 2,4 -0,9 31 17 43 23 N 997,7 44 0,0
19.11.2017 12:00:00 2,4 -0,5 31 17 42 23 N 997,3 45 0,0
19.11.2017 11:00:00 2,7 0,4 29 15 44 24 N 997,0 34 0,0
19.11.2017 10:00:00 2,4 0,6 24 13 39 21 N 996,6 9 0,0
19.11.2017 09:00:00 3,2 0,6 20 11 30 16 NW 996,1 48 0,0
19.11.2017 08:00:00 3,1 -1,1 9 5 22 12 N 995,6 50 0,0
19.11.2017 07:00:00 3,1 -1,6 10 5 17 9 N 995,4 49 0,0
19.11.2017 06:00:00 3,1 -0,5 14 7 21 11 N 995,1 46 0,0
19.11.2017 05:00:00 3,4 -0,8 12 6 20 11 NW 994,8 44 0,0
19.11.2017 04:00:00 3,3 -1,3 4 2 18 10 ZW 994,6 50 0,0
19.11.2017 03:00:00 3,4 -1,0 8 4 17 9 WZW 994,4 48 0,0
19.11.2017 02:00:00 3,7 -0,9 10 5 19 10 WNW 994,4 50 0,0

tt = temperatuur
td = dauwpunt
ff = windsnelheid
fx = windstoten
dd = windrichting
ppp = luchtdruk
vv = zicht
rr = neerslag

Weerstations in de omgeving